EUTELSAT 70B

Last updated on Tue Oct 08 2024 00:02:39 GMT+0000 (Coordinated Universal Time)

1 39020U 12069A 24281.35882705 -.00000033 00000+0 00000+0 0 9992 2 39020 0.0645 3.2301 0004107 196.9772 15.9754 1.00271274 43410
UTC large
Height (km)
Speed (km/s)
/
Latitude / Longitude
Inclination (degrees)
Orbital Period (minutes)
Azimuth
Elevation
Range (km)
Doppler Factor

Next 0 passes for location: London (51.5072 / 0.1276)

Sorry there are no passes over London.